Location: Hemaruka
(51.7801°N, 111.0917°W)
Time: 16:35:07
(UTC+00:00)

MOZHAYETS 4 - Pass Details

Date: 13 December 2023
Orbit: 654 x 672 km, 98.3° (Epoch: 23 February)

Event Time Altitude Azimuth Distance (km) Brightness Sun altitude
Rises 00:56:38 0° 5° (N) 3,040 10.9 -14.8°
Reaches altitude 10° 00:59:18 10° 350° (N) 2,121 10.2 -15.2°
Maximum altitude 01:02:45 21° 302° (WNW) 1,498 10.0 -15.7°
Drops below altitude 10° 01:06:12 10° 253° (WSW) 2,109 11.7 -16.2°
Sets 01:08:51 0° 238° (WSW) 3,017 12.6 -16.6°
